CW0529 Weather Reports


time (UTC)temp
F
wind
direction
speed
knots
gust
knots
rain 1hr
in
rain 24hr
in
rain mn
in
humidity
%
barometer
mb
20260504041834 51 182 0.0 0.0 0.00 0.01 0.01 80 1038.6
20260504041330 51 182 0.0 0.0 0.00 0.01 0.01 80 1038.6
20260504040826 51 182 0.0 0.0 0.00 0.01 0.01 79 1038.5
20260504040324 51 182 0.0 0.0 0.00 0.01 0.01 78 1038.3
20260504035814 52 179 0.0 0.0 0.00 0.01 0.01 76 1038.2
20260504035312 53 172 0.0 0.9 0.00 0.01 0.01 74 1038.1
20260504034809 54 189 0.0 0.0 0.00 0.01 0.01 73 1038.3
20260504034307 54 186 0.0 0.0 0.00 0.01 0.01 73 1038.2
20260504033804 54 188 0.0 0.9 0.00 0.01 0.01 73 1038.3
20260504033301 54 187 0.0 0.0 0.00 0.01 0.01 74 1038.1
20260504032757 54 176 0.9 2.6 0.00 0.01 0.01 75 1038.3
20260504032255 54 149 0.9 1.7 0.00 0.01 0.01 76 1037.8
20260504031752 52 173 1.7 1.7 0.00 0.01 0.01 78 1038.2
20260504031249 50 186 0.0 0.9 0.00 0.01 0.01 79 1038.6
20260504030745 50 178 0.0 0.0 0.00 0.01 0.01 78 1038.6
20260504030242 50 178 0.0 0.0 0.00 0.01 0.01 77 1038.5
20260504025738 51 178 0.0 0.0 0.00 0.01 0.01 76 1038.6
20260504025236 51 178 0.0 0.0 0.00 0.01 0.01 75 1038.9
20260504024732 51 178 0.0 0.0 0.00 0.01 0.01 74 1038.8
20260504024229 51 178 0.0 0.0 0.00 0.01 0.01 74 1039.1
20260504023726 51 179 0.0 0.0 0.00 0.01 0.01 73 1038.8
20260504023221 52 179 0.0 0.0 0.00 0.01 0.01 73 1038.9
20260504022718 52 178 0.0 0.0 0.00 0.01 0.01 72 1038.9
20260504022214 52 178 0.0 0.0 0.00 0.01 0.01 71 1038.8
20260504021712 53 178 0.0 0.0 0.00 0.01 0.01 71 1038.8
20260504021209 53 178 0.0 0.0 0.00 0.01 0.01 70 1038.7
20260504020706 53 178 0.0 0.0 0.00 0.01 0.01 70 1038.6
20260504020202 53 178 0.0 0.0 0.00 0.01 0.01 69 1038.6
20260504015659 53 179 0.0 0.0 0.00 0.01 0.01 67 1038.3
20260504015155 54 178 0.0 0.0 0.00 0.01 0.01 66 1038.4
20260504014650 55 178 0.0 0.0 0.00 0.01 0.01 65 1038.5
20260504014148 55 177 0.0 0.0 0.00 0.01 0.01 65 1038.3
20260504013645 56 181 0.0 0.0 0.00 0.01 0.01 63 1038.2
20260504013142 56 181 0.0 0.0 0.00 0.01 0.01 62 1037.8
20260504012639 57 182 0.0 0.0 0.00 0.01 0.01 61 1037.9
20260504012137 57 189 0.0 0.0 0.00 0.01 0.01 59 1038.2
20260504011634 58 189 0.0 0.0 0.00 0.01 0.01 58 1038.1
20260504011130 58 187 0.0 0.0 0.00 0.01 0.01 58 1037.9
20260504010626 59 183 0.0 0.0 0.00 0.01 0.01 58 1038.0
20260504010122 60 183 0.0 0.9 0.00 0.01 0.01 56 1037.8
20260504005619 60 182 0.0 0.9 0.00 0.01 0.01 56 1038.0
20260504005116 60 181 0.0 0.9 0.00 0.01 0.01 55 1037.7
20260504004614 61 179 0.0 0.9 0.00 0.01 0.01 55 1037.6
20260504004111 61 181 0.9 0.9 0.00 0.01 0.01 54 1037.6
20260504003607 61 182 0.0 0.0 0.00 0.01 0.01 53 1037.9
20260504003104 62 183 0.0 0.9 0.00 0.01 0.01 53 1038.0
20260504002601 62 182 0.0 0.9 0.00 0.01 0.01 52 1037.8
20260504002058 62 189 0.0 0.0 0.00 0.01 0.01 50 1037.9
20260504001556 63 185 0.0 0.9 0.00 0.01 0.01 50 1038.0
20260504001051 64 186 0.0 0.0 0.00 0.01 0.01 49 1038.0
20260504000549 64 183 0.0 0.9 0.00 0.01 0.01 48 1037.9
20260504000046 65 179 0.9 2.6 0.00 0.01 0.01 46 1038.0
20260503235545 65 175 0.0 1.7 0.00 0.01 0.01 45 1038.2
20260503235041 65 190 0.9 1.7 0.00 0.01 0.01 45 1038.0
20260503234538 66 177 0.9 1.7 0.00 0.01 0.01 44 1038.4
20260503234037 66 189 0.9 2.6 0.00 0.01 0.01 44 1038.4
20260503233533 66 184 1.7 2.6 0.00 0.01 0.01 43 1038.2
20260503233029 67 188 2.6 4.3 0.00 0.01 0.01 42 1038.4
20260503232526 67 177 0.9 1.7 0.00 0.01 0.01 42 1038.6
20260503232024 68 168 1.7 4.3 0.00 0.01 0.01 42 1038.6
20260503231521 68 190 0.9 4.3 0.00 0.01 0.01 40 1038.8
20260503231018 68 206 3.5 5.2 0.00 0.01 0.01 40 1038.8
20260503230514 68 217 1.7 2.6 0.00 0.01 0.01 40 1038.8
20260503230012 68 149 1.7 5.2 0.00 0.01 0.01 41 1038.9
20260503225509 69 126 2.6 5.2 0.00 0.01 0.01 39 1039.1
20260503225004 69 193 0.9 4.3 0.00 0.01 0.01 42 1039.1
20260503224502 68 244 3.5 5.2 0.00 0.01 0.01 40 1039.0
20260503223959 68 181 0.0 6.1 0.00 0.01 0.01 40 1039.3
20260503223457 69 162 0.9 5.2 0.00 0.01 0.01 40 1039.2
20260503222952 69 233 4.3 6.1 0.00 0.01 0.01 39 1039.3
20260503222451 69 141 0.9 5.2 0.00 0.01 0.01 41 1039.2
20260503221948 68 168 1.7 5.2 0.00 0.01 0.01 41 1039.1
20260503221447 69 169 2.6 4.3 0.00 0.01 0.01 40 1039.2
20260503220943 70 176 0.0 1.7 0.00 0.01 0.01 42 1039.3
20260503220439 69 230 2.6 2.6 0.00 0.01 0.01 39 1039.5
20260503215937 69 183 1.7 5.2 0.00 0.01 0.01 40 1039.6
20260503215433 69 180 0.9 1.7 0.00 0.01 0.01 39 1039.7
20260503214931 69 200 0.9 2.6 0.00 0.01 0.01 38 1039.6
20260503214429 68 176 0.9 5.2 0.00 0.01 0.01 40 1040.0
20260503213926 68 196 3.5 6.1 0.00 0.01 0.01 38 1039.9
20260503213424 69 285 1.7 5.2 0.00 0.01 0.01 40 1040.0
20260503212920 68 223 2.6 5.2 0.00 0.01 0.01 39 1040.1
20260503212418 70 154 1.7 5.2 0.00 0.01 0.01 39 1040.0
20260503211915 69 209 1.7 2.6 0.00 0.01 0.01 39 1040.3
20260503211411 68 190 0.9 4.3 0.00 0.01 0.01 41 1040.3
20260503210907 68 195 2.6 4.3 0.00 0.01 0.01 40 1040.5
20260503210404 68 138 4.3 7.0 0.00 0.01 0.01 39 1040.4
20260503205859 68 158 2.6 5.2 0.00 0.01 0.01 40 1040.6
20260503205356 69 123 2.6 5.2 0.00 0.01 0.01 37 1040.7
20260503204852 69 189 2.6 2.6 0.00 0.01 0.01 39 1040.8
20260503204349 68 191 2.6 6.1 0.00 0.01 0.01 38 1040.7
20260503203847 68 206 1.7 2.6 0.00 0.01 0.01 40 1040.8
20260503203344 68 170 3.5 5.2 0.00 0.01 0.01 39 1040.8
20260503202841 68 219 4.3 6.1 0.00 0.01 0.01 39 1041.0
20260503202339 67 198 1.7 5.2 0.00 0.01 0.01 42 1041.3
20260503201837 68 193 0.9 2.6 0.00 0.01 0.01 43 1041.3
20260503201334 67 254 4.3 6.1 0.00 0.01 0.01 41 1041.4
20260503200832 68 196 2.6 6.1 0.00 0.01 0.01 41 1041.4
20260503200327 67 230 0.9 6.1 0.00 0.01 0.01 41 1041.6
20260503195825 67 206 4.3 6.1 0.00 0.01 0.01 41 1041.6
20260503195321 66 272 1.7 7.0 0.00 0.01 0.01 44 1041.9
20260503194819 67 136 2.6 5.2 0.00 0.01 0.01 44 1042.0
20260503194314 66 212 0.9 6.1 0.00 0.01 0.01 46 1042.0
20260503193810 66 195 2.6 8.7 0.00 0.01 0.01 41 1042.3
20260503193307 66 167 0.9 5.2 0.00 0.01 0.01 42 1042.1
20260503192803 66 174 1.7 4.3 0.00 0.01 0.01 42 1042.4
20260503192258 65 184 1.7 4.3 0.00 0.01 0.01 40 1042.2
20260503191754 65 148 1.7 5.2 0.00 0.01 0.01 43 1042.4
20260503191252 64 180 3.5 6.1 0.00 0.01 0.01 43 1042.6
20260503190748 64 237 2.6 5.2 0.00 0.01 0.01 43 1042.7
20260503190245 64 220 4.3 7.0 0.00 0.01 0.01 44 1042.5
20260503185742 66 198 2.6 5.2 0.00 0.01 0.01 40 1042.7
20260503185237 65 214 4.3 7.0 0.00 0.01 0.01 45 1042.7
20260503184727 64 165 1.7 5.2 0.00 0.01 0.01 45 1042.7
20260503184224 64 209 1.7 2.6 0.00 0.01 0.01 46 1043.1
20260503183720 65 206 2.6 6.1 0.00 0.01 0.01 44 1043.1
20260503183217 64 170 1.7 4.3 0.00 0.01 0.01 49 1043.1
20260503182715 64 162 3.5 5.2 0.00 0.01 0.01 46 1043.1
20260503182213 64 211 2.6 4.3 0.00 0.01 0.01 49 1043.2
20260503181709 63 149 1.7 4.3 0.00 0.01 0.01 49 1043.4
20260503181207 63 250 4.3 6.1 0.00 0.01 0.01 49 1043.4
20260503180703 63 189 0.9 5.2 0.00 0.01 0.01 48 1043.4
20260503180202 63 193 2.6 7.0 0.00 0.01 0.01 45 1043.4
20260503175658 62 187 0.9 4.3 0.00 0.01 0.01 50 1043.4
20260503175156 62 234 0.9 2.6 0.00 0.01 0.01 44 1043.6
20260503174651 62 229 2.6 4.3 0.00 0.01 0.01 43 1043.7
20260503174149 63 237 2.6 2.6 0.00 0.01 0.01 48 1043.8
20260503173644 62 252 1.7 6.1 0.00 0.01 0.01 49 1043.8
20260503173141 62 194 1.7 4.3 0.00 0.01 0.01 45 1043.9
20260503172638 61 154 0.0 4.3 0.00 0.01 0.01 45 1044.0
20260503172135 61 12 2.6 4.3 0.00 0.01 0.01 43 1044.1
20260503171631 62 236 2.6 4.3 0.00 0.01 0.01 44 1043.9
20260503171129 61 166 1.7 1.7 0.00 0.01 0.01 47 1044.0
20260503170626 60 192 0.0 2.6 0.00 0.01 0.01 45 1044.3
20260503170123 60 209 1.7 2.6 0.00 0.01 0.01 46 1044.3
20260503151012 55 169 1.7 2.6 0.00 0.01 0.01 72 1045.3
20260503150508 55 144 3.5 4.3 0.00 0.01 0.01 72 1045.3
20260503131356 44 144 0.9 1.7 0.00 0.01 0.01 99 1045.2
20260503130853 44 165 1.7 2.6 0.00 0.01 0.01 99 1045.0
20260503130350 44 153 0.9 1.7 0.00 0.01 0.01 99 1045.0
20260503110738 35 184 0.0 0.0 0.00 0.01 0.01 99 1043.9
20260503110236 34 179 0.0 0.0 0.00 0.01 0.01 99 1044.0
20260503100201 35 183 0.0 0.0 0.00 0.00 0.00 99 1043.5
20260503090121 38 184 0.0 0.0 0.00 0.00 0.00 99 1043.6
20260503081556 38 183 0.0 0.0 0.00 0.00 0.00 99 1043.4
20260503081053 37 183 0.0 0.0 0.00 0.00 0.00 99 1043.2
20260503080549 38 183 0.0 0.0 0.00 0.00 0.00 99 1043.2
20260503072523 39 183 0.0 0.0 0.00 0.00 0.00 99 1043.2
20260503072020 39 183 0.0 0.0 0.00 0.00 0.00 99 1043.1
20260503071517 39 183 0.0 0.0 0.00 0.00 0.00 99 1043.2
20260503071014 39 183 0.0 0.0 0.00 0.00 0.00 99 1043.1
20260503070510 39 184 0.0 0.0 0.00 0.00 0.00 99 1042.9
20260503054929 39 187 0.0 0.0 0.00 0.00 0.00 98 1042.8
20260503054425 39 187 0.0 0.0 0.00 0.00 0.00 98 1043.2
20260503053923 40 187 0.0 0.0 0.00 0.00 0.00 98 1042.9
20260503053421 40 186 0.0 0.0 0.00 0.00 0.00 98 1043.1
20260503052916 40 187 0.0 0.0 0.00 0.00 0.00 98 1042.9
20260503052414 40 186 0.0 0.0 0.00 0.00 0.00 98 1043.1
20260503051910 41 187 0.0 0.0 0.00 0.00 0.00 98 1043.2
20260503051406 41 187 0.0 0.0 0.00 0.00 0.00 98 1042.8
20260503050904 41 187 0.0 0.0 0.00 0.00 0.00 98 1042.7
20260503050359 41 187 0.0 0.0 0.00 0.00 0.00 98 1042.8
20260503045857 41 187 0.0 0.0 0.00 0.01 0.01 97 1042.8
20260503045354 41 187 0.0 0.0 0.00 0.01 0.01 97 1042.6
20260503044851 41 187 0.0 0.0 0.00 0.01 0.01 97 1042.7
20260503044348 42 187 0.0 0.0 0.00 0.01 0.01 97 1042.6
20260503043845 41 188 0.0 0.0 0.00 0.01 0.01 97 1042.6
20260503043342 41 188 0.0 0.0 0.00 0.01 0.01 97 1042.6
20260503042838 42 188 0.0 0.0 0.00 0.01 0.01 97 1042.7
20260503042335 42 188 0.0 0.0 0.00 0.01 0.01 97 1042.5